Regional Weather Roundup
Issued by NWS

Home | Current Version | Previous Version | Text Only | Print | Product List | Glossary On
Versions: 1 2 3 4 5 6 7 8 9 10 11 12 13 14 15 16 17 18 19 20 21 22 23 24 25 26 27 28 29 30 31 32 33 34 35 36 37 38 39 40 41 42 43 44 45 46 47 48 49 50
392
ASUS43 KBIS 261402
RWRND

NORTH DAKOTA REGIONAL WEATHER ROUNDUP
NATIONAL WEATHER SERVICE BISMARCK ND
900 AM CDT TUE SEP 26 2017

NOTE: "FAIR" INDICATES FEW OR NO CLOUDS BELOW 12,000 FEET WITH NO
SIGNIFICANT WEATHER AND/OR OBSTRUCTIONS TO VISIBILITY.


NDZ001>003-009>011-017-261500-
NORTHWEST NORTH DAKOTA

CITY           SKY/WX    TMP DP  RH WIND       PRES   REMARKS
WILLISTON      CLOUDY    48  45  89 CALM      30.11R
MINOT          CLOUDY    49  45  86 CALM      30.11S
MINOT AFB      CLOUDY    48  45  91 CALM      30.10S
$$

NDZ018>021-031>035-040>046-261500-
SOUTHWEST NORTH DAKOTA

CITY           SKY/WX    TMP DP  RH WIND       PRES   REMARKS
BISMARCK       CLOUDY    47  46  97 CALM      30.13R
DICKINSON      LGT RAIN  45  44  97 E5        30.08R
GARRISON         N/A     47  44  90 CALM      30.11R
HETTINGER ARPT CLOUDY    44  42  93 S5        30.10S
$$

NDZ004>008-012>016-024-026-027-054-261500-
NORTHEAST NORTH DAKOTA

CITY           SKY/WX    TMP DP  RH WIND       PRES   REMARKS
GRAND FORKS    LGT RAIN  49  49 100 N12       30.06F
GRND FRKS AFB  RAIN      48  48 100 N10       30.08F
DEVILS LAKE    LGT RAIN  45  44  97 NW5       30.12R
$$

NDZ022-023-025-028>030-036>039-047>053-261500-
SOUTHEAST NORTH DAKOTA

CITY           SKY/WX    TMP DP  RH WIND       PRES   REMARKS
FARGO          RAIN      50  50 100 NW9       30.05R FOG
JAMESTOWN      LGT RAIN  47  46  97 NW9       30.10R FOG
$$





USA.gov is the U.S. government's official web portal to all federal, state and local government web resources and services.